{"data":{"norad_id":54004,"intl_designator":"2022-125AS","name":"STARLINK-5129","alt_names":[],"object_type":"PAYLOAD","status":"ACTIVE","operator":null,"country":"US","launch_date":"2022-10-05","launch_site_code":"AFWTR","launch_vehicle":null,"mission":null,"orbit_class":"UNKNOWN","rcs_meters":null,"size_class":null,"mass_kg":null,"dimensions":null,"purposes":["comms"],"wikipedia_slug":null,"has_3d_model":false,"image_url":null,"decayed_at":null,"tle_current":{"epoch":"2026-05-24T15:28:16.040640Z","epoch_age_seconds":112729,"freshness":"FRESH","line1":"1 54004U 22125AS  26144.64463010  .00000911  00000+0  75366-4 0  9997","line2":"2 54004  53.2144 232.8268 0001589  78.7381 281.3789 15.08835000200934","mean_motion":15.08835,"eccentricity":0.0001589,"inclination_deg":53.2144,"raan_deg":232.8268,"arg_perigee_deg":78.7381,"mean_anomaly_deg":281.3789,"bstar":7.5366e-5,"rev_number":20093,"period_min":95.437870940162,"perigee_km":538.65941838375,"apogee_km":540.85792562831,"semimajor_km":6917.895672006,"source":"CELESTRAK","updated_at":"2026-05-25T13:38:17.624708Z"}}}